Location: Newark
(13.8117°N, 3.6025°W)
Time: 00:43:30
(UTC+00:00)

Vanguard 1 Rocket - All Passes

Search period start: 21 August 2019 00:00
Search period end: 31 August 2019 00:00
Orbit: 652 x 4224 km, 34.3° (Epoch: 20 August)

Date Brightness Start Highest point End Pass type
(mag) Time Alt. Az. Time Alt. Az. Time Alt. Az.
21 Aug - 01:34:29 10° WNW 01:38:01 21° NNW 01:41:30 10° NNE night (unlit)
21 Aug - 04:05:18 10° N 04:05:36 10° N 04:05:55 10° N visible
21 Aug - 06:26:58 10° NNW 06:33:46 30° NNE 06:45:25 10° E daylight
21 Aug - 08:50:38 10° NW 09:01:39 87° NE 09:23:35 10° SE daylight
21 Aug - 11:17:54 10° W 11:32:55 41° SW 11:55:45 10° SSE daylight
21 Aug - 13:58:22 10° SW 14:09:07 14° SSW 14:20:29 10° S daylight
21 Aug - 21:54:39 10° SSW 22:01:25 24° SSE 22:05:58 10° E visible
22 Aug - 00:21:35 10° WSW 00:27:01 48° NNW 00:31:15 10° NE night (unlit)
22 Aug - 05:17:14 10° NNW 05:21:34 17° NNE 05:27:36 10° ENE visible
22 Aug - 07:40:01 10° NW 07:48:55 60° NE 08:06:42 10° ESE daylight
22 Aug - 10:05:14 10° WNW 10:18:12 56° SW 10:41:17 10° SE daylight
22 Aug - 12:37:47 10° WSW 12:52:05 22° SSW 13:09:47 10° SSE daylight
22 Aug - 20:43:18 10° S 20:49:01 15° SSE 20:53:17 10° ESE visible
22 Aug - 23:08:53 10° SW 23:16:09 73° SSE 23:20:47 10° ENE night (unlit)
23 Aug - 01:38:47 10° WNW 01:41:18 14° NNW 01:43:46 10° NNE night (unlit)
23 Aug - 06:29:52 10° NW 06:36:48 37° NNE 06:49:17 10° E daylight
23 Aug - 08:53:42 10° WNW 09:04:27 78° SW 09:25:50 10° SE daylight
23 Aug - 11:22:05 10° W 11:36:10 32° SSW 11:56:51 10° SSE daylight
23 Aug - 14:11:22 10° SSW 14:13:51 10° SSW 14:16:23 10° SSW daylight
23 Aug - 19:34:19 10° SSE 19:35:39 10° SSE 19:36:55 10° SSE visible
23 Aug - 21:56:19 10° SW 22:04:47 38° SSE 22:09:54 10° E visible
24 Aug - 00:25:06 10° W 00:30:03 30° NNW 00:34:00 10° NNE night (unlit)
24 Aug - 05:20:09 10° NNW 05:24:54 20° NNE 05:31:52 10° ENE visible
24 Aug - 07:42:57 10° NW 07:51:41 74° NE 08:09:36 10° ESE daylight
24 Aug - 10:08:48 10° W 10:21:16 45° SSW 10:42:45 10° SSE daylight
24 Aug - 12:44:16 10° WSW 12:56:04 17° SSW 13:09:58 10° S daylight
24 Aug - 20:43:51 10° SSW 20:52:37 24° SSE 20:58:13 10° ESE visible
24 Aug - 23:11:43 10° WSW 23:19:11 72° NW 23:23:54 10° NE night (unlit)
25 Aug - 04:11:38 10° N 04:12:51 11° NNE 04:14:09 10° NNE visible
25 Aug - 06:32:44 10° NW 06:39:42 46° NE 06:52:52 10° ESE daylight
25 Aug - 08:56:56 10° WNW 09:07:23 62° SSW 09:27:47 10° SE daylight
25 Aug - 11:26:52 10° WSW 11:39:42 25° SSW 11:57:38 10° SSE daylight
25 Aug - 19:31:44 10° S 19:39:33 16° SSE 19:45:11 10° ESE visible
25 Aug - 21:58:25 10° SW 22:08:01 58° SSE 22:13:24 10° ENE visible
26 Aug - 00:28:59 10° W 00:33:08 21° NNW 00:36:34 10° NNE night (unlit)
26 Aug - 05:22:57 10° NNW 05:28:04 25° NNE 05:36:01 10° E visible
26 Aug - 07:45:59 10° WNW 07:54:31 88° SW 08:12:10 10° SE daylight
26 Aug - 10:12:45 10° W 10:24:33 35° SSW 10:43:56 10° SSE daylight
26 Aug - 12:52:59 10° SW 13:00:33 12° SSW 13:08:53 10° S daylight
26 Aug - 18:20:55 10° S 18:25:20 11° SSE 18:29:08 10° SE daylight
26 Aug - 20:45:11 10° SSW 20:56:05 35° SSE 21:02:18 10° E visible
26 Aug - 23:14:52 10° WSW 23:22:09 47° NW 23:26:48 10° NE night (unlit)
27 Aug - 04:13:58 10° N 04:16:18 12° NNE 04:19:04 10° NE visible
27 Aug - 06:35:37 10° NW 06:42:33 59° NE 06:56:08 10° ESE daylight
27 Aug - 09:00:24 10° WNW 09:10:29 48° SSW 09:29:26 10° SE daylight
27 Aug - 11:32:35 10° WSW 11:43:34 18° SSW 11:57:55 10° S daylight
27 Aug - 19:32:04 10° SSW 19:43:16 24° SSE 19:50:17 10° ESE visible
27 Aug - 22:00:53 10° SW 22:11:06 86° SE 22:16:37 10° ENE visible
28 Aug - 00:33:17 10° WNW 00:36:18 15° NNW 00:38:56 10° N night (unlit)
28 Aug - 05:25:44 10° NNW 05:31:06 32° NNE 05:39:57 10° E visible
28 Aug - 07:49:08 10° WNW 07:57:28 70° SSW 08:14:25 10° SE daylight
28 Aug - 10:17:12 10° W 10:28:04 26° SSW 10:44:46 10° SSE daylight
28 Aug - 18:19:17 10° SSW 18:29:23 17° SSE 18:36:38 10° ESE daylight
28 Aug - 20:46:57 10° SW 20:59:23 51° SSE 21:05:57 10° ENE visible
28 Aug - 23:18:22 10° W 23:25:06 32° NW 23:29:35 10° NNE visible
29 Aug - 04:16:25 10° N 04:19:37 16° NNE 04:23:41 10° ENE visible
29 Aug - 06:38:35 10° NW 06:45:25 77° NE 06:59:04 10° ESE daylight
29 Aug - 09:04:10 10° W 09:13:47 37° SSW 09:30:47 10° SSE daylight
29 Aug - 11:39:58 10° SW 11:47:51 13° SSW 11:57:13 10° S daylight
29 Aug - 17:07:48 10° S 17:14:10 12° SSE 17:19:34 10° SE daylight
29 Aug - 19:33:06 10° SSW 19:46:48 34° SSE 19:54:32 10° E visible
29 Aug - 22:03:42 10° WSW 22:14:03 67° NW 22:19:40 10° NE visible
30 Aug - 00:38:23 10° NW 00:39:35 11° NNW 00:40:45 10° N night (unlit)
30 Aug - 05:28:32 10° NW 05:34:01 42° NE 05:43:34 10° ESE visible
30 Aug - 07:52:30 10° WNW 08:00:35 53° SSW 08:16:21 10° SE daylight
30 Aug - 10:22:26 10° WSW 10:31:51 19° SSW 10:45:07 10° SSE daylight
30 Aug - 18:19:28 10° SSW 18:33:12 24° SSE 18:41:57 10° ESE daylight
30 Aug - 20:49:04 10° SW 21:02:32 72° SSE 21:09:18 10° ENE visible
30 Aug - 23:22:13 10° W 23:28:07 24° NNW 23:32:16 10° NNE visible
